Location: *
(34.0486°S, 61.7880°E)
Time: 16:49:14
(UTC+00:00)

CZ-3A R/B - Pass Details

Date: 01 April 2020
Orbit: 143 x 11468 km, 24.2° (Epoch: 22 May)

Event Time Altitude Azimuth Distance (km) Brightness Sun altitude
Exits shadow 22:59:44 27° 38° (NE) 2,241 4.4 -38.6°
Maximum altitude 22:59:49 27° 39° (NE) 2,259 4.4 -38.6°
Drops below altitude 10° 23:12:00 10° 88° (E) 6,452 7.4 -36.3°
Sets 23:23:14 0° 95° (E) 10,000 8.7 -34.1°
